User: anonymous   Login
Location: Unspecified
(0.0000°N, 0.0000°E)
Time: 01:42:26
(UTC+00:00)
Language:

COSMOS 2452 - Orbit

View from above orbital plane
View from above orbital plane
View from above satellite
View from above satellite

Ground track
Ground track

The orbit data is extracted from the following two-line orbital elements,

1 35499U 09036B   24148.21328005  .00000021  00000-0  81904-4 0  9997
2 35499  82.4906 187.2856 0015349 342.2832  17.7710 12.42971036675594
Epoch (UTC): 27 May 2024 05:07:07
Eccentricity: 0.0015349
inclination: 82.4906°
perigee height: 1482 km
apogee height: 1506 km
right ascension of ascending node: 187.2856°
argument of perigee: 342.2832°
revolutions per day: 12.42971036
mean anomaly at epoch: 17.7710°
orbit number at epoch: 67559

The dashed part of the orbit path shows where the satellite is in the earth's shadow,  

DLR